FLOCK 4A-10 (44097 NORAD) Tracking and Keplerian Element Data

This shows tracking and keplerian element data for the satellite.

Feedback or suggestion? Click here.




ElementValue
Catalog44097
NameFLOCK 4A-10
Epoch Orbit8836
Epoch Day307.0964682
Epoch Year2020
RAAN6.2192
Inclination97.3951
Eccentricity0.0012587
Argument of Perigee60.9487
Mean Anonmoly299.3009
Mean Motion15.23376375
Decay Rate4.835E-05
L11 44097U 19018V 20307.09646820 .00004835 00000-0 20590-3 0 9999
L22 44097 97.3951 6.2192 0012587 60.9487 299.3009 15.23376375 88366



Live tracking and technical data element details for FLOCK 4A-10 (NORAD 44097). FLOCK 4A-10 can be tracked NOW for your location showing map with azimuth and elevation plus other details from your city location.







IsCatalogInMostPopularTable: catalog: 44097, numindb: 407
Update: records affected: 1



GetName: 44097 FLOCK 4A-10

Hit Count: updated at: Thu, 15 May 2025 10:30:57 GMT